www.pogodaiklimat.ru

Погода и климат >> Архив погоды >> Россия >> Красноярский край >> Светлолобово


ПОГОДА в Светлолобово

  • Прогноз погоды в Светлолобово
  • Монитор погоды в Светлолобово

АРХИВ ПОГОДЫ в Светлолобово

Время (UTC), дата Ветер
(напр.,м/с)
 
Видим.   Явления Облачность Т
(С)
Тd
(С)
f
(%)
Тe
(С)
Тes
(С)
Комфортность P
(гПа)
Po
(гПа)
Тmin
(С)
Tmax
(С)
R
(мм)
R24
(мм)
S
(см)
15 14.08 В 1 20 км ясно +12.2 +10.6 90 +12 +12 1013.6 975.2
18 14.08 В 1 20 км 3/0
[Ci fib]
+10.5 +9.9 96 +10 +10 1013.3 974.7
21 14.08 В 1 4000 м дымка 4/0
[Ci fib]
+9.8 +9.4 97 +9 +9 1012.5 973.9
00 15.08 В 1 4000 м дымка 6/6 1000 м
[Sc]
+10.1 +9.8 98 +9 +10 1012.3 973.7 +8.9
03 15.08 СВ 2 20 км 6/0
[Ci fib]
+18.4 +13.9 75 +19 +26 1010.5 973.1
06 15.08 Ю 2 20 км 3/0
[Ci fib]
+23.3 +12.8 52 +26 +38 жарко 1009.0 972.3
09 15.08 В 2 20 км 6/0
[Ci fib]
+24.6 +14.6 54 +27 +34 жарко 1008.4 971.9
12 15.08 В 2 20 км 8/4 600 м
[Cb cap Ci fib]
+22.3 +15.2 64 +26 +26 жарко 1008.6 971.8 +25.1
15 15.08 В 1 20 км 3/3 1000 м
[Sc]
+15.8 +14.2 90 +16 +16 1010.1 972.4
18 15.08 В 1 20 км 4/0
[Ci fib]
+13.9 +13.4 97 +14 +14 1010.2 972.2
21 15.08 В 1 20 км 8/0
[Ci fib]
+14.1 +13.1 94 +14 +14 1009.2 971.3
00 16.08 ЮЗ 1 20 км 8/0
[Ci fib]
+12.6 +12.3 98 +12 +13 1008.7 970.6 +10.6
03 16.08 СВ 1 20 км 8/4 600 м
[Cb cap Ci fib]
+17.7 +13.8 78 +19 +23 1007.4 970.0
06 16.08 СВ 2 50 км 8/6 600 м
[Cb cap Ci fib]
+23.0 +15.0 61 +27 +31 душно 1005.5 968.9
09 16.08 СВ 2 50 км 8/6 600 м
[Cb cap Ci fib]
+23.8 +15.1 58 +27 +29 жарко 1005.1 968.6
12 16.08 С 1 50 км 9/9 600 м
[Cb cap]
+22.2 +15.1 64 +26 +26 душно 1006.1 969.3 +24.8
15 16.08 З 4 20 км 8/8 600 м
[Cb cap]
+17.6 +15.1 85 +17 +17 1007.8 970.4
18 16.08 ЮЗ 2 20 км 9/9 600 м
[Cb cap]
+16.2 +15.3 94 +16 +16 1008.3 970.8
21 16.08 З 2 20 км 8/6 600 м
[Cb cap Ci fib]
+15.0 +14.5 97 +15 +15 1009.2 971.5
00 17.08 З 2 20 км 9/8 1000 м
[Sc Ci fib]
+14.2 +13.8 97 +14 +14 1010.6 972.6 +13.9
03 17.08 З 2 50 км 8/3 1000 м
[Sc Ci fib]
+18.2 +15.2 83 +19 +23 1011.0 973.6
06 17.08 СВ 1 50 км 6/6 600 м
[Cb cap]
+23.1 +13.5 55 +26 +32 жарко 1010.6 973.8
09 17.08 С 1 20 км 8/4 600 м
[Cb cap Ci fib]
+24.9 +12.9 47 +27 +31 жарко 1010.2 973.6
12 17.08 З 2 20 км в посл. час гроза 9/6 600 м
[Cb cap Ci fib]
+20.3 +14.6 70 +23 +24 комфорт 1011.4 974.2 +25.0
15 17.08 ЮВ 1 20 км 8/8 600 м
[Cb cap]
+17.3 +13.7 79 +18 +18 1013.2 975.6
18 17.08 СЗ 1 20 км {ливн. осадки} 8/8 600 м
[Cb cap]
+15.1 +14.5 96 +16 +16 1013.0 975.2
21 17.08 З 1 н/о н/о +11.5 +11.2 98 +11 +11 1013.7 975.2
00 18.08 З 1 20 км 8/6 600 м
[Cb cap Ci fib]
+11.6 +11.3 98 +11 +12 1013.8 975.4 +11.2 0.0
03 18.08 З 1 10 км дым 6/0
[Ci fib]
+17.0 +14.7 86 +18 +25 1012.9 975.3
06 18.08 СВ 3 4000 м гроза без осадков 6/6 600 м
[Cb cap]
+21.5 +14.2 63 +24 +28 комфорт 1011.3 974.3
09 18.08 СЗ 1
{10}
4000 м гроза без осадков {ливн. осадки} 9/6 600 м
[Cb cap Ci fib]
+22.8 +13.0 54 +26 +29 жарко 1010.1 973.3
12 18.08 СВ 2
{12}
20 км {гроза, ливн. осадки} 6/6 600 м
[Cb cap]
+17.1 +12.6 75 +17 +18 1012.2 974.6 +22.9 4
15 18.08 штиль 0 4000 м дымка 9/8 600 м
[Cb cap Ci fib]
+11.0 +10.5 97 +10 +10 1014.6 976.0
18 18.08 З 2 4000 м дымка 3/0
[Ci fib]
+10.3 +9.9 97 +9 +9 1015.4 976.7
21 18.08 ЮЗ 2 4000 м дымка ясно +7.9 +7.6 98 +6 +6 1016.2 977.2
00 19.08 З 1 500 м туман ясно +8.9 +8.7 99 +8 +9 1017.3 978.4 +6.9
03 19.08 З 2 20 км {туман} 3/0
[Ci fib]
+15.6 +13.2 86 +15 +22 1017.0 979.0
06 19.08 В 1 10 км дым {туман} 4/4 600 м
[Cb cap]
+22.0 +10.1 47 +24 +32 комфорт 1015.7 978.5
09 19.08 ЮЗ 2 10 км дым 8/4 600 м
[Cb cap Ci fib]
+22.3 +11.3 50 +24 +28 комфорт 1015.2 978.1
12 19.08 Ю 1 10 км дым 8/8 600 м
[Cb cap]
+20.0 +14.9 72 +23 +23 комфорт 1015.1 977.8 +22.5
15 19.08 штиль 0 10 км дым 8/6 600 м
[Cb cap Ci fib]
+14.7 +13.5 93 +14 +14 1016.4 978.3
18 19.08 Ю 1 4000 м дымка 8/0
[Ci fib]
+13.2 +12.7 97 +13 +13 1016.6 978.3
21 19.08 В 1 4000 м дымка 8/0
[Ci fib]
+13.5 +13.0 97 +14 +14 1015.5 977.3
00 20.08 В 1 4000 м дымка 9/8 1000 м
[Sc Ci fib]
+13.5 +13.0 97 +14 +14 1015.0 976.8 +12.9
03 20.08 Ю 2 20 км 8/8 1000 м
[Sc]
+17.4 +14.3 82 +18 +19 1013.8 976.2
06 20.08 ЮВ 2 20 км 8/6 600 м
[Cb cap Ci fib]
+19.7 +13.6 68 +22 +26 комфорт 1012.7 975.4
09 20.08 ЮЗ 1 4000 м слаб. ливневой дождь 10/10 600 м
[Cb cap]
+18.1 +15.3 84 +19 +19 1011.8 974.4
12 20.08 З 4 4000 м слаб. ливневой дождь 10/10 600 м
[Cb cap]
+15.6 +15.1 97 +15 +15 1012.5 974.8 +20.0 0.0
15 20.08 З 4 20 км {ливн. осадки} 9/9 600 м
[Cb cap]
+13.7 +13.2 97 +12 +12 1014.6 976.5
18 20.08 З 2 20 км {ливн. осадки} 8/8 600 м
[Cb cap]
+12.1 +11.6 97 +11 +11 1016.1 977.7
21 20.08 штиль 0 20 км 8/8
[Cb cap]
+9.9 +9.5 97 +9 +9 1016.6 977.8
00 21.08 Ю 1 20 км 6/4 600 м
[Cb cap Ci fib]
+8.8 +8.5 98 +8 +8 1016.7 977.8 +7.8 7
03 21.08 Ю 2 20 км 6/6 1000 м
[Sc]
+16.3 +12.2 77 +16 +19 1015.6 977.7
06 21.08 Ю 3 50 км 8/8 600 м
[Cb cap]
+19.3 +10.4 56 +21 +22 комфорт 1014.0 976.6
09 21.08 ЮЗ 4 20 км в посл. час ливневой дождь 9/9 600 м
[Cb cap]
+15.0 +12.2 83 +14 +14 1015.3 977.3
12 21.08 СВ 1 20 км {ливн. осадки} 3/0
[Ci fib]
+17.0 +10.4 65 +18 +18 1014.4 976.7 +19.9 0.8

 

Местоположение метеостанции Светлолобово (Красноярский край, Россия): широта 55.10 долгота 90.83 высота над уровнем моря 325 м.

В архиве по умолчанию представлена погода в Светлолобово за последнюю неделю. Архивные данные за месяц целиком и за предыдущие месяцы, начиная с января 2011 года, Вы можете получить, выбрав интересующий диапазон дат из раскрывающегося списка и нажав кнопку "Ввод!".


*Определитесь, кто Вы:
робот инопланетянин человек

Внимание! Время в таблицах - всемирное. Для получения местного времени необходимо прибавить поправку, которая равна 7 ч.

Смотрите также архив погоды в соседних городах и на ближайших метеорологических станциях:

Погода в Первомайском (Хакасия, Россия) (58 км)
Погода в Балахте (Красноярский край, Россия) (62 км)
Погода в Копьево-2 (Хакасия, Россия) (63 км)
Погода в Ужуре (Красноярский край, Россия) (68 км)
Погода в Шире (Хакасия, Россия) (88 км)
Погода в Назарово (Красноярский край, Россия) (108 км)
Погода в Лебяжьем (Красноярский край, Россия) (111 км)
Погода в Шарыпово (Красноярский край, Россия) (114 км)
Погода в Идринском (Красноярский край, Россия) (116 км)
Погода в Кемчуге (Красноярский край, Россия) (123 км)

Пояснения к столбцам:

Ветер - указаны скорость ветра в м/с - средняя за 10 мин, порывы в срок и между сроками (в фигурных скобках) и направление, откуда дует ветер: С - северный, СВ - северо-восточный, В - восточный, ЮВ - юго-восточный, Ю - южный, ЮЗ - юго-западный, З - западный, СЗ - северо-западный.
Видимость - горизонтальная дальность видимости в метрах или километрах. При видимости от 1 до 10 км при отсутствии осадков обычно наблюдается дымка, при ухудшении видимости до 1 км и менее - туман. В сухую погоду видимость может ухудшаться дымом, пылью или мглою.
Явления - указаны атмосферные явления, наблюдавшиеся в срок или в последний час перед сроком; фигурными скобками обозначены явления, наблюдавшиеся между сроками (за 1-3 часа до срока); квадратными скобками обозначены град или гололедные отложения с указанием их диаметра в мм.
Облачность - указаны через наклонную черту общая и нижняя облачность в баллах и высота нижней границы облаков в метрах; квадратными скобками обозначены формы облаков: Ci - перистые, Cs - перисто-слоистые, Cc - перисто-кучевые, Ac - высококучевые, As - высокослоистые, Sc - слоисто-кучевые, Ns - слоисто-дождевые, Cu - кучевые, Cb - кучево-дождевые. Подробнее классификацию облаков см. в Атласе облаков (PDF).
T - Температура воздуха - температура, измеренная на высоте 2 м над землей.
Td - Температура точки росы - температура, при понижении до которой содержащийся в воздухе водяной пар достигнет насыщения.
f - Относительная влажность воздуха - влажноcть воздуха, измеренная на высоте 2 м над землей.
Te - Эффективная температура - температура, которую ощущает одетый по сезону человек в тени. Характеристика душности погоды. При расчете учитывается влияние влажности воздуха и скорости ветра на теплоощущения человека.
Tes - Эффективная температура на солнце - температура, которую ощущает человек, с поправкой на солнечный нагрев. Характеристика знойности погоды. Зависит от высоты солнца над горизонтом, облачности и скорости ветра. Ночью, в пасмурную погоду, а также при ветре 12 м/с и более поправка равна нулю.
P - Атмосферное давление - приведенное к уровню моря атмосферное давление.
Po - Атмосферное давление - измеренное на уровне метеостанции атмосферное давление.
Tmin - Минимальная температура - минимум температуры воздуха на высоте 2 м над землей.
Tmax - Максимальная температура - максимум температуры воздуха на высоте 2 м над землей.
R - Количество осадков - Количество выпавших осадков за период времени, мм. При наведении курсора мыши на число - период времени, за который выпало указанное количество осадков.
R24 - Количество осадков - Количество выпавших осадков за 24 часа, мм.
S - Снежный покров - Высота снежного покрова, см. При наведении курсора мыши на число - состояние снежного покрова и степень покрытия местности в баллах.